Year,Month,Day,Hour,Minute,Value (Times are PST for temperature in C)
2007,04,20,08,45,7.10
2007,04,20,08,46,7.10
2007,04,20,08,47,7.10
2007,04,20,08,48,7.10
2007,04,20,08,49,7.10
2007,04,20,08,50,7.10
2007,04,20,08,52,7.10
2007,04,20,08,53,7.10
2007,04,20,08,54,7.10
2007,04,20,08,55,7.10
2007,04,20,08,56,7.10
2007,04,20,08,57,7.10
2007,04,20,08,59,7.10
2007,04,20,09,00,7.10
2007,04,20,09,01,7.10
2007,04,20,09,02,7.10
2007,04,20,09,03,7.10
2007,04,20,09,04,7.10
2007,04,20,09,05,7.10
2007,04,20,09,06,7.10
2007,04,20,09,07,7.10
2007,04,20,09,08,7.10
2007,04,20,09,10,7.10
2007,04,20,09,11,7.10
2007,04,20,09,12,7.10
2007,04,20,09,13,7.10
2007,04,20,09,14,7.10
2007,04,20,09,15,7.10
2007,04,20,09,16,7.10
2007,04,20,09,17,7.10
2007,04,20,09,18,7.10
2007,04,20,09,20,7.10
2007,04,20,09,21,7.10
2007,04,20,09,22,7.10
2007,04,20,09,23,7.70
2007,04,20,09,24,7.70
2007,04,20,09,25,7.70
2007,04,20,09,27,7.70
2007,04,20,09,28,7.70
2007,04,20,09,29,7.70
2007,04,20,09,30,7.70
2007,04,20,09,31,7.70
2007,04,20,09,32,7.70
2007,04,20,09,33,7.70
2007,04,20,09,34,7.70
2007,04,20,09,35,7.70
2007,04,20,09,36,7.70
2007,04,20,09,37,7.70
2007,04,20,09,38,7.70
2007,04,20,09,39,7.70
2007,04,20,09,40,7.70
2007,04,20,09,41,7.70
2007,04,20,09,42,7.70
2007,04,20,09,43,7.70
2007,04,20,09,44,7.70
2007,04,20,09,45,7.70
2007,04,20,09,46,7.70
2007,04,20,09,47,7.70
2007,04,20,09,49,7.70
2007,04,20,09,50,8.30
2007,04,20,09,51,8.30
2007,04,20,09,52,8.30
2007,04,20,09,53,8.30
2007,04,20,09,54,8.30
2007,04,20,09,56,8.30
2007,04,20,09,57,8.30
2007,04,20,09,59,8.30
2007,04,20,10,00,8.30
2007,04,20,10,01,8.30
2007,04,20,10,02,8.30
2007,04,20,10,03,8.30
2007,04,20,10,04,8.30
2007,04,20,10,05,8.30
2007,04,20,10,06,8.30
2007,04,20,10,07,8.30
2007,04,20,10,08,8.30
2007,04,20,10,09,8.30
2007,04,20,10,10,8.30
2007,04,20,10,11,8.30
2007,04,20,10,12,8.30
2007,04,20,10,13,8.30
2007,04,20,10,14,8.30
2007,04,20,10,15,8.30
2007,04,20,10,16,8.30
2007,04,20,10,17,8.30
2007,04,20,10,18,9.00
2007,04,20,10,19,9.00
2007,04,20,10,20,9.00
2007,04,20,10,21,9.00
2007,04,20,10,22,9.00
2007,04,20,10,23,9.00
2007,04,20,10,24,9.00
2007,04,20,10,25,9.00
2007,04,20,10,26,9.00
2007,04,20,10,27,9.00
2007,04,20,10,28,9.00
2007,04,20,10,29,9.00
2007,04,20,10,30,9.00
2007,04,20,10,31,9.00
2007,04,20,10,32,9.00
2007,04,20,10,33,9.00
2007,04,20,10,34,9.00
2007,04,20,10,35,9.00
2007,04,20,10,36,9.00
2007,04,20,10,37,9.00
2007,04,20,10,38,9.00
2007,04,20,10,39,9.00
2007,04,20,10,40,9.00
2007,04,20,10,41,9.00
2007,04,20,10,42,9.00
2007,04,20,10,43,9.00
2007,04,20,10,44,9.00
2007,04,20,10,45,9.00
2007,04,20,10,46,9.00
2007,04,20,10,47,9.00
2007,04,20,10,48,9.00
2007,04,20,10,49,9.00
2007,04,20,10,50,9.00
2007,04,20,10,51,9.00
2007,04,20,10,52,9.00
2007,04,20,10,53,9.00
2007,04,20,10,54,9.00
2007,04,20,10,55,9.00
2007,04,20,10,56,9.00
2007,04,20,10,57,9.00
2007,04,20,10,58,9.00
2007,04,20,10,59,9.00
2007,04,20,11,01,9.00
2007,04,20,11,02,9.00
2007,04,20,11,03,9.00
2007,04,20,11,04,9.00
2007,04,20,11,05,9.00
2007,04,20,11,06,9.00
2007,04,20,11,07,9.00
2007,04,20,11,08,9.00
2007,04,20,11,09,9.00
2007,04,20,11,11,9.00
2007,04,20,11,12,9.00
2007,04,20,11,13,9.00
2007,04,20,11,14,9.00
2007,04,20,11,15,8.50
2007,04,20,11,16,8.50
2007,04,20,11,18,8.50
2007,04,20,11,19,8.50
2007,04,20,11,20,8.50
2007,04,20,11,21,8.50
2007,04,20,11,22,8.50
2007,04,20,11,23,8.50
2007,04,20,11,24,8.50
2007,04,20,11,25,8.50
2007,04,20,11,26,8.50
2007,04,20,11,27,8.50
2007,04,20,11,28,8.50
2007,04,20,11,29,8.50
2007,04,20,11,30,8.50
2007,04,20,11,31,8.50
2007,04,20,11,32,8.50
2007,04,20,11,33,8.50
2007,04,20,11,35,8.50
2007,04,20,11,36,8.50
2007,04,20,11,37,8.50
2007,04,20,11,38,8.50
2007,04,20,11,40,8.50
2007,04,20,11,41,8.50
2007,04,20,11,42,8.50
2007,04,20,11,43,8.80
2007,04,20,11,44,8.80
2007,04,20,11,45,8.80
2007,04,20,11,46,8.80
2007,04,20,11,47,8.80
2007,04,20,11,48,8.80
2007,04,20,11,49,8.80
2007,04,20,11,50,8.80
2007,04,20,11,51,8.80
2007,04,20,11,52,8.80
2007,04,20,11,53,8.80
2007,04,20,11,55,8.80
2007,04,20,11,56,8.80
2007,04,20,11,57,8.80
2007,04,20,11,58,8.80
2007,04,20,11,59,8.80
2007,04,20,12,00,8.80
2007,04,20,12,01,8.80
2007,04,20,12,02,8.80
2007,04,20,12,03,8.80
2007,04,20,12,04,8.80
2007,04,20,12,05,8.80
2007,04,20,12,06,8.80
2007,04,20,12,07,8.80
2007,04,20,12,08,8.80
2007,04,20,12,09,8.80
2007,04,20,12,11,8.70
2007,04,20,12,12,8.70
2007,04,20,12,13,8.70
2007,04,20,12,14,8.70
2007,04,20,12,15,8.70
2007,04,20,12,17,8.70
2007,04,20,12,18,8.70
2007,04,20,12,19,8.70
2007,04,20,12,20,8.70
2007,04,20,12,21,8.70
2007,04,20,12,22,8.70
2007,04,20,12,23,8.70
2007,04,20,12,24,8.70
2007,04,20,12,26,8.70
2007,04,20,12,27,8.70
2007,04,20,12,28,8.70
2007,04,20,12,29,8.70
2007,04,20,12,30,8.70
2007,04,20,12,31,8.70
2007,04,20,12,32,8.70
2007,04,20,12,33,8.70
2007,04,20,12,34,8.70
2007,04,20,12,35,8.70
2007,04,20,12,36,8.70
2007,04,20,12,37,8.70
2007,04,20,12,38,9.30
2007,04,20,12,39,9.30
2007,04,20,12,40,9.30
2007,04,20,12,41,9.30
2007,04,20,12,42,9.30
2007,04,20,12,43,9.30
2007,04,20,12,44,9.30
2007,04,20,12,45,9.30
2007,04,20,12,46,9.30
2007,04,20,12,47,9.30
2007,04,20,12,48,9.30
2007,04,20,12,49,9.30
2007,04,20,12,50,9.30
2007,04,20,12,51,9.30
2007,04,20,12,52,9.30
2007,04,20,12,53,9.30
2007,04,20,12,54,9.30
2007,04,20,12,55,9.30
2007,04,20,12,56,9.30
2007,04,20,12,57,9.30
2007,04,20,12,58,9.30
2007,04,20,12,59,9.30
2007,04,20,13,00,9.30
2007,04,20,13,01,9.30
2007,04,20,13,02,9.30
2007,04,20,13,04,9.10
2007,04,20,13,05,9.10
2007,04,20,13,06,9.10
2007,04,20,13,07,9.10
2007,04,20,13,08,9.10
2007,04,20,13,09,9.10
2007,04,20,13,10,9.10
2007,04,20,13,11,9.10
2007,04,20,13,12,9.10
2007,04,20,13,13,9.10
2007,04,20,13,14,9.10
2007,04,20,13,15,9.10
2007,04,20,13,16,9.10
2007,04,20,13,17,9.10
2007,04,20,13,18,9.10
2007,04,20,13,19,9.10
2007,04,20,13,20,9.10
2007,04,20,13,21,9.10
2007,04,20,13,22,9.10
2007,04,20,13,23,9.10
2007,04,20,13,24,9.10
2007,04,20,13,25,9.10
2007,04,20,13,26,9.10
2007,04,20,13,27,9.10
2007,04,20,13,28,9.10
2007,04,20,13,29,9.80
2007,04,20,13,30,9.80
2007,04,20,13,31,9.80
2007,04,20,13,32,9.80
2007,04,20,13,33,9.80
2007,04,20,13,34,9.80
2007,04,20,13,35,9.80
2007,04,20,13,36,9.80
2007,04,20,13,37,9.80
2007,04,20,13,38,9.80
2007,04,20,13,39,9.80
2007,04,20,13,40,9.80
2007,04,20,13,41,9.80
2007,04,20,13,42,9.80
2007,04,20,13,43,9.80
2007,04,20,13,44,9.80
2007,04,20,13,45,9.80
2007,04,20,13,47,9.80
2007,04,20,13,48,9.80
2007,04,20,13,49,9.80
2007,04,20,13,50,9.80
2007,04,20,13,51,9.80
2007,04,20,13,52,9.80
2007,04,20,13,53,9.80
2007,04,20,13,54,9.30
2007,04,20,13,55,9.30
2007,04,20,13,56,9.30
2007,04,20,13,57,9.30
2007,04,20,13,58,9.30
2007,04,20,13,59,9.30
2007,04,20,14,00,9.30
2007,04,20,14,01,9.30
2007,04,20,14,02,9.30
2007,04,20,14,03,9.30
2007,04,20,14,04,9.30
2007,04,20,14,05,9.30
2007,04,20,14,06,9.30
2007,04,20,14,07,9.30
2007,04,20,14,08,9.30
2007,04,20,14,09,9.30
2007,04,20,14,10,9.30
2007,04,20,14,11,9.30
2007,04,20,14,12,9.30
2007,04,20,14,13,9.30
2007,04,20,14,14,9.30
2007,04,20,14,15,9.30
2007,04,20,14,16,9.30
2007,04,20,14,17,9.30
2007,04,20,14,18,9.30
2007,04,20,14,19,9.40
2007,04,20,14,20,9.40
2007,04,20,14,21,9.40
2007,04,20,14,22,9.40
2007,04,20,14,23,9.40
2007,04,20,14,24,9.40
2007,04,20,14,25,9.40
2007,04,20,14,26,9.40
2007,04,20,14,27,9.40
2007,04,20,14,28,9.40
2007,04,20,14,29,9.40
2007,04,20,14,30,9.40
2007,04,20,14,31,9.40
2007,04,20,14,32,9.40
2007,04,20,14,33,9.40
2007,04,20,14,34,9.40
2007,04,20,14,35,9.40
2007,04,20,14,36,9.40
2007,04,20,14,37,9.40
2007,04,20,14,38,9.40
2007,04,20,14,39,9.40
2007,04,20,14,40,9.40
2007,04,20,14,41,9.40
2007,04,20,14,42,9.40
2007,04,20,14,43,9.40
2007,04,20,14,44,10.00
2007,04,20,14,45,10.00
2007,04,20,14,46,10.00
2007,04,20,14,47,10.00
2007,04,20,14,48,10.00
2007,04,20,14,50,10.00
2007,04,20,14,51,10.00
2007,04,20,14,52,10.00
2007,04,20,14,53,10.00
2007,04,20,14,54,10.00
2007,04,20,14,55,10.00
2007,04,20,14,56,10.00
2007,04,20,14,57,10.00
2007,04,20,14,58,10.00
2007,04,20,15,00,10.00
2007,04,20,15,01,10.00
2007,04,20,15,02,10.00
2007,04,20,15,03,10.00
2007,04,20,15,04,10.00
2007,04,20,15,05,10.00
2007,04,20,15,06,10.00
2007,04,20,15,07,10.00
2007,04,20,15,08,9.70
2007,04,20,15,09,9.70
2007,04,20,15,10,9.70
2007,04,20,15,11,9.70
2007,04,20,15,12,9.70
2007,04,20,15,14,9.70
2007,04,20,15,15,9.70
2007,04,20,15,16,9.70
2007,04,20,15,17,9.70
2007,04,20,15,18,9.70
2007,04,20,15,19,9.70
2007,04,20,15,20,9.70
2007,04,20,15,21,9.70
2007,04,20,15,22,9.70
2007,04,20,15,23,9.70
2007,04,20,15,24,9.70
2007,04,20,15,25,9.70
2007,04,20,15,26,9.70
2007,04,20,15,27,9.70
2007,04,20,15,28,9.70
2007,04,20,15,30,9.70
2007,04,20,15,31,9.70
2007,04,20,15,32,9.10
2007,04,20,15,33,9.10
2007,04,20,15,34,9.10
2007,04,20,15,35,9.10
2007,04,20,15,36,9.10
2007,04,20,15,37,9.10
2007,04,20,15,38,9.10
2007,04,20,15,39,9.10
2007,04,20,15,40,9.10
2007,04,20,15,41,9.10
2007,04,20,15,42,9.10
2007,04,20,15,43,9.10
2007,04,20,15,44,9.10
2007,04,20,15,45,9.10
2007,04,20,15,46,9.10
2007,04,20,15,47,9.10
2007,04,20,15,49,9.10
2007,04,20,15,50,9.10
2007,04,20,15,51,9.10
2007,04,20,15,52,9.10
2007,04,20,15,53,9.10
2007,04,20,15,54,9.10
2007,04,20,15,55,9.10
2007,04,20,15,56,9.10
2007,04,20,15,57,9.10
2007,04,20,15,58,9.10
2007,04,20,15,59,9.10
2007,04,20,16,00,9.10
2007,04,20,16,01,9.10
2007,04,20,16,02,9.10
2007,04,20,16,03,9.10
2007,04,20,16,05,9.10
2007,04,20,16,06,9.10
2007,04,20,16,07,9.10
2007,04,20,16,08,9.10
2007,04,20,16,09,9.10
2007,04,20,16,10,9.10
2007,04,20,16,11,9.10
2007,04,20,16,12,9.10
2007,04,20,16,13,9.10
2007,04,20,16,14,9.10
2007,04,20,16,15,9.10
2007,04,20,16,17,9.10
2007,04,20,16,18,9.10
2007,04,20,16,19,9.10
2007,04,20,16,20,9.30
2007,04,20,16,21,9.30
2007,04,20,16,22,9.30
2007,04,20,16,23,9.30
2007,04,20,16,24,9.30
2007,04,20,16,25,9.30
2007,04,20,16,26,9.30
2007,04,20,16,27,9.30
2007,04,20,16,28,9.30
2007,04,20,16,29,9.30
2007,04,20,16,30,9.30
2007,04,20,16,31,9.30
2007,04,20,16,32,9.30
2007,04,20,16,33,9.30
2007,04,20,16,34,9.30
2007,04,20,16,35,9.30
2007,04,20,16,36,9.30
2007,04,20,16,37,9.30
2007,04,20,16,38,9.30
2007,04,20,16,39,9.30
2007,04,20,16,40,9.30
2007,04,20,16,41,9.30
2007,04,20,16,42,9.30
2007,04,20,16,43,9.30
2007,04,20,16,44,9.10
2007,04,20,16,45,9.10
2007,04,20,16,46,9.10
2007,04,20,16,48,9.10
2007,04,20,16,49,9.10
2007,04,20,16,50,9.10
2007,04,20,16,51,9.10
2007,04,20,16,52,9.10
2007,04,20,16,53,9.10
2007,04,20,16,54,9.10
2007,04,20,16,55,9.10
2007,04,20,16,56,9.10
2007,04,20,16,57,9.10
2007,04,20,16,58,9.10
2007,04,20,16,59,9.10
2007,04,20,17,00,9.10
2007,04,20,17,01,9.10
2007,04,20,17,02,9.10
2007,04,20,17,03,9.10
2007,04,20,17,04,9.10
2007,04,20,17,05,9.10
2007,04,20,17,06,9.10
2007,04,20,17,07,9.20
2007,04,20,17,08,9.20
2007,04,20,17,09,9.20
2007,04,20,17,10,9.20
2007,04,20,17,11,9.20
2007,04,20,17,12,9.20
2007,04,20,17,13,9.20
2007,04,20,17,14,9.20
2007,04,20,17,15,9.20
2007,04,20,17,16,9.20
2007,04,20,17,17,9.20
2007,04,20,17,18,9.20
2007,04,20,17,19,9.20
2007,04,20,17,20,9.20
2007,04,20,17,21,9.20
2007,04,20,17,22,9.20
2007,04,20,17,23,9.20
2007,04,20,17,24,9.20
2007,04,20,17,25,9.20
2007,04,20,17,26,9.20
2007,04,20,17,27,9.20
2007,04,20,17,28,9.20
2007,04,20,17,29,9.20
2007,04,20,17,30,9.20
2007,04,20,17,31,9.10
2007,04,20,17,32,9.10
2007,04,20,17,33,9.10
2007,04,20,17,34,9.10
2007,04,20,17,35,9.10
2007,04,20,17,36,9.10
2007,04,20,17,37,9.10
2007,04,20,17,38,9.10
2007,04,20,17,39,9.10
2007,04,20,17,40,9.10
2007,04,20,17,41,9.10
2007,04,20,17,42,9.10
2007,04,20,17,43,9.10
2007,04,20,17,44,9.10
2007,04,20,17,45,9.10
2007,04,20,17,46,9.10
2007,04,20,17,47,9.10
2007,04,20,17,49,9.10
2007,04,20,17,51,9.10
2007,04,20,17,52,9.10
2007,04,20,17,53,9.10
2007,04,20,17,54,8.90
2007,04,20,17,55,8.90
2007,04,20,17,56,8.90
2007,04,20,17,57,8.90
2007,04,20,17,58,8.90
2007,04,20,17,59,8.90
2007,04,20,18,00,8.90
2007,04,20,18,01,8.90
2007,04,20,18,02,8.90
2007,04,20,18,03,8.90
2007,04,20,18,04,8.90
2007,04,20,18,05,8.90
2007,04,20,18,06,8.90
2007,04,20,18,08,8.90
2007,04,20,18,09,8.90
2007,04,20,18,10,8.90
2007,04,20,18,11,8.90
2007,04,20,18,12,8.90
2007,04,20,18,13,8.90
2007,04,20,18,14,8.90
2007,04,20,18,15,8.90
2007,04,20,18,16,8.90
2007,04,20,18,18,8.90
2007,04,20,18,19,8.90
2007,04,20,18,20,8.90
2007,04,20,18,21,8.90
2007,04,20,18,22,8.90
2007,04,20,18,23,8.90
2007,04,20,18,24,8.90
2007,04,20,18,25,8.90
2007,04,20,18,26,8.90
2007,04,20,18,27,8.90
2007,04,20,18,28,8.90
2007,04,20,18,29,8.90
2007,04,20,18,30,8.90
2007,04,20,18,31,8.90
2007,04,20,18,32,8.90
2007,04,20,18,33,8.90
2007,04,20,18,34,8.90
2007,04,20,18,35,8.90
2007,04,20,18,36,8.90
2007,04,20,18,37,8.90
2007,04,20,18,38,8.90
2007,04,20,18,39,8.90
2007,04,20,18,40,8.90
2007,04,20,18,41,8.80
2007,04,20,18,42,8.80
2007,04,20,18,43,8.80
2007,04,20,18,44,8.80
2007,04,20,18,45,8.80
2007,04,20,18,46,8.80
2007,04,20,18,47,8.80
2007,04,20,18,48,8.80
2007,04,20,18,49,8.80
2007,04,20,18,50,8.80
2007,04,20,18,51,8.80
2007,04,20,18,52,8.80
2007,04,20,18,53,8.80
2007,04,20,18,54,8.80
2007,04,20,18,55,8.80
2007,04,20,18,56,8.80
2007,04,20,18,57,8.80
2007,04,20,18,58,8.80
2007,04,20,18,59,8.80
2007,04,20,19,00,8.80
2007,04,20,19,01,8.80
2007,04,20,19,02,8.80
2007,04,20,19,03,8.80
2007,04,20,19,04,8.60
2007,04,20,19,05,8.60
2007,04,20,19,06,8.60
2007,04,20,19,07,8.60
2007,04,20,19,09,8.60
2007,04,20,19,10,8.60
2007,04,20,19,11,8.60
2007,04,20,19,12,8.60
2007,04,20,19,13,8.60
2007,04,20,19,14,8.60
2007,04,20,19,15,8.60
2007,04,20,19,16,8.60
2007,04,20,19,17,8.60
2007,04,20,19,18,8.60
2007,04,20,19,19,8.60
2007,04,20,19,20,8.60
2007,04,20,19,21,8.60
2007,04,20,19,22,8.60
2007,04,20,19,23,8.60
2007,04,20,19,24,8.60
2007,04,20,19,25,8.60
2007,04,20,19,27,8.80
2007,04,20,19,28,8.80
2007,04,20,19,29,8.80
2007,04,20,19,30,8.80
2007,04,20,19,31,8.80
2007,04,20,19,32,8.80
2007,04,20,19,33,8.80
2007,04,20,19,34,8.80
2007,04,20,19,36,8.80
2007,04,20,19,37,8.80
2007,04,20,19,38,8.80
2007,04,20,19,39,8.80
2007,04,20,19,40,8.80
2007,04,20,19,41,8.80
2007,04,20,19,42,8.80
2007,04,20,19,43,8.80
2007,04,20,19,44,8.80
2007,04,20,19,45,8.80
2007,04,20,19,46,8.80
2007,04,20,19,48,8.80
2007,04,20,19,49,8.80
2007,04,20,19,50,8.90
2007,04,20,19,51,8.90
2007,04,20,19,53,8.90
2007,04,20,19,54,8.90
2007,04,20,19,56,8.90
2007,04,20,19,57,8.90
2007,04,20,19,59,8.90
2007,04,20,20,00,8.90
2007,04,20,20,01,8.90
2007,04,20,20,02,8.90
2007,04,20,20,03,8.90
2007,04,20,20,04,8.90
2007,04,20,20,05,8.90
2007,04,20,20,06,8.90
2007,04,20,20,07,8.90
2007,04,20,20,08,8.90
2007,04,20,20,09,8.90
2007,04,20,20,10,8.90
2007,04,20,20,11,8.90
2007,04,20,20,12,8.90
2007,04,20,20,13,8.80
2007,04,20,20,14,8.80
2007,04,20,20,15,8.80
2007,04,20,20,16,8.80
2007,04,20,20,17,8.80
2007,04,20,20,18,8.80
2007,04,20,20,19,8.80
2007,04,20,20,20,8.80
2007,04,20,20,21,8.80
2007,04,20,20,22,8.80
2007,04,20,20,23,8.80
2007,04,20,20,24,8.80
2007,04,20,20,25,8.80
2007,04,20,20,26,8.80
2007,04,20,20,27,8.80
2007,04,20,20,28,8.80
2007,04,20,20,29,8.80
2007,04,20,20,30,8.80
2007,04,20,20,31,8.80
2007,04,20,20,32,8.80
2007,04,20,20,33,8.80
2007,04,20,20,34,8.80
2007,04,20,20,35,8.80
2007,04,20,20,36,8.80
2007,04,20,20,37,8.80
2007,04,20,20,38,8.80
2007,04,20,20,39,8.80
2007,04,20,20,40,8.80
2007,04,20,20,41,8.80
2007,04,20,20,42,8.80
2007,04,20,20,43,8.80
2007,04,20,20,44,8.80
2007,04,20,20,45,8.80
2007,04,20,20,46,8.80
2007,04,20,20,47,8.80
2007,04,20,20,48,8.80
2007,04,20,20,49,8.80
2007,04,20,20,50,8.80
2007,04,20,20,51,8.80
2007,04,20,20,52,8.80
2007,04,20,20,53,8.80
2007,04,20,20,54,8.80
2007,04,20,20,55,8.80
2007,04,20,20,56,8.80
2007,04,20,20,57,8.80
2007,04,20,20,58,8.80
2007,04,20,20,59,8.60
2007,04,20,21,00,8.60
2007,04,20,21,01,8.60
2007,04,20,21,02,8.60
2007,04,20,21,03,8.60
2007,04,20,21,04,8.60
2007,04,20,21,05,8.60
2007,04,20,21,06,8.60
2007,04,20,21,07,8.60
2007,04,20,21,08,8.60
2007,04,20,21,09,8.60
2007,04,20,21,10,8.60
2007,04,20,21,11,8.60
2007,04,20,21,12,8.60
2007,04,20,21,13,8.60
2007,04,20,21,14,8.60
2007,04,20,21,15,8.60
2007,04,20,21,16,8.60
2007,04,20,21,17,8.60
2007,04,20,21,18,8.60
2007,04,20,21,19,8.60
2007,04,20,21,20,8.60
2007,04,20,21,21,8.60
2007,04,20,21,22,8.30
2007,04,20,21,23,8.30
2007,04,20,21,24,8.30
2007,04,20,21,25,8.30
2007,04,20,21,26,8.30
2007,04,20,21,27,8.30
2007,04,20,21,28,8.30
2007,04,20,21,29,8.30
2007,04,20,21,30,8.30
2007,04,20,21,31,8.30
2007,04,20,21,32,8.30
2007,04,20,21,33,8.30
2007,04,20,21,34,8.30
2007,04,20,21,35,8.30
2007,04,20,21,36,8.30
2007,04,20,21,37,8.30
2007,04,20,21,38,8.30
2007,04,20,21,40,8.30
2007,04,20,21,41,8.30
2007,04,20,21,43,8.30
2007,04,20,21,44,8.30
2007,04,20,21,45,8.20
2007,04,20,21,46,8.20
2007,04,20,21,47,8.20
2007,04,20,21,48,8.20
2007,04,20,21,49,8.20
2007,04,20,21,50,8.20
2007,04,20,21,51,8.20
2007,04,20,21,52,8.20
2007,04,20,21,53,8.20
2007,04,20,21,54,8.20
2007,04,20,21,55,8.20
2007,04,20,21,56,8.20
2007,04,20,21,57,8.20
2007,04,20,21,58,8.20
2007,04,20,21,59,8.20
2007,04,20,22,00,8.20
2007,04,20,22,01,8.20
2007,04,20,22,02,8.20
2007,04,20,22,03,8.20
2007,04,20,22,04,8.20
2007,04,20,22,05,8.20
2007,04,20,22,07,8.20
2007,04,20,22,08,8.10
2007,04,20,22,09,8.10
2007,04,20,22,10,8.10
2007,04,20,22,11,8.10
2007,04,20,22,12,8.10
2007,04,20,22,13,8.10
2007,04,20,22,14,8.10
2007,04,20,22,15,8.10
2007,04,20,22,17,8.10
2007,04,20,22,18,8.10
2007,04,20,22,19,8.10
2007,04,20,22,20,8.10
2007,04,20,22,21,8.10
2007,04,20,22,22,8.10
2007,04,20,22,23,8.10
2007,04,20,22,24,8.10
2007,04,20,22,25,8.10
2007,04,20,22,26,8.10
2007,04,20,22,27,8.10
2007,04,20,22,28,8.10
2007,04,20,22,29,8.10
2007,04,20,22,30,8.10
2007,04,20,22,31,8.10
2007,04,20,22,32,8.10
2007,04,20,22,33,8.10
2007,04,20,22,34,8.10
2007,04,20,22,35,8.10
2007,04,20,22,36,8.10
2007,04,20,22,37,8.10
2007,04,20,22,39,8.10
2007,04,20,22,40,8.10
2007,04,20,22,41,8.10
2007,04,20,22,42,8.10
2007,04,20,22,43,8.10
2007,04,20,22,44,8.10
2007,04,20,22,45,8.10
2007,04,20,22,46,8.10
2007,04,20,22,47,8.10
2007,04,20,22,48,8.10
2007,04,20,22,49,8.10
2007,04,20,22,50,8.10
2007,04,20,22,51,8.10
2007,04,20,22,52,8.10
2007,04,20,22,53,8.10
2007,04,20,22,54,7.80
2007,04,20,22,55,7.80
2007,04,20,22,56,7.80
2007,04,20,22,57,7.80
2007,04,20,22,58,7.80
2007,04,20,22,59,7.80
2007,04,20,23,00,7.80
2007,04,20,23,01,7.80
2007,04,20,23,02,7.80
2007,04,20,23,03,7.80
2007,04,20,23,04,7.80
2007,04,20,23,05,7.80
2007,04,20,23,06,7.80
2007,04,20,23,07,7.80
2007,04,20,23,08,7.80
2007,04,20,23,09,7.80
2007,04,20,23,10,7.80
2007,04,20,23,11,7.80
2007,04,20,23,12,7.80
2007,04,20,23,13,7.80
2007,04,20,23,14,7.80
2007,04,20,23,15,7.80
2007,04,20,23,16,7.80
2007,04,20,23,17,7.30
2007,04,20,23,18,7.30
2007,04,20,23,19,7.30
2007,04,20,23,20,7.30
2007,04,20,23,21,7.30
2007,04,20,23,22,7.30
2007,04,20,23,23,7.30
2007,04,20,23,24,7.30
2007,04,20,23,25,7.30
2007,04,20,23,26,7.30
2007,04,20,23,27,7.30
2007,04,20,23,28,7.30
2007,04,20,23,29,7.30
2007,04,20,23,30,7.30
2007,04,20,23,31,7.30
2007,04,20,23,32,7.30
2007,04,20,23,33,7.30
2007,04,20,23,34,7.30
2007,04,20,23,35,7.30
2007,04,20,23,36,7.30
2007,04,20,23,37,7.30
2007,04,20,23,38,7.30
2007,04,20,23,39,7.30
2007,04,20,23,40,6.90
2007,04,20,23,41,6.90
2007,04,20,23,42,6.90
2007,04,20,23,43,6.90
2007,04,20,23,44,6.90
2007,04,20,23,45,6.90
2007,04,20,23,46,6.90
2007,04,20,23,47,6.90
2007,04,20,23,48,6.90
2007,04,20,23,49,6.90
2007,04,20,23,50,6.90
2007,04,20,23,51,6.90
2007,04,20,23,52,6.90
2007,04,20,23,54,6.90
2007,04,20,23,55,6.90
2007,04,20,23,56,6.90
2007,04,20,23,57,6.90
2007,04,20,23,58,6.90
2007,04,20,23,59,6.90
